| time (UTC) | temp F | wind direction | speed MPH | gust MPH | rain 1hr in | rain 24hr in | rain mn in | humidity % | barometer mb |
| 20260506225949 | 53 | 137 | 2.0 | 3.0 | 0.00 | 0.02 | 0.02 | 65 | 1023.6 |
| 20260506225446 | 53 | 144 | 2.0 | 2.0 | 0.00 | 0.02 | 0.02 | 67 | 1023.6 |
| 20260506224942 | 53 | 60 | 1.0 | 2.0 | 0.00 | 0.02 | 0.02 | 66 | 1023.5 |
| 20260506224440 | 53 | 74 | 2.0 | 3.0 | 0.00 | 0.02 | 0.02 | 66 | 1023.5 |
| 20260506223936 | 54 | 74 | 2.0 | 4.0 | 0.00 | 0.02 | 0.02 | 66 | 1023.6 |
| 20260506223432 | 54 | 28 | 4.0 | 4.0 | 0.00 | 0.02 | 0.02 | 66 | 1023.6 |
| 20260506222930 | 54 | 85 | 2.0 | 4.0 | 0.00 | 0.02 | 0.02 | 63 | 1023.6 |
| 20260506222426 | 55 | 19 | 2.0 | 4.0 | 0.00 | 0.02 | 0.02 | 65 | 1023.6 |
| 20260506221923 | 54 | 62 | 5.0 | 5.0 | 0.00 | 0.02 | 0.02 | 68 | 1023.5 |
| 20260506221420 | 53 | 49 | 2.0 | 4.0 | 0.00 | 0.02 | 0.02 | 67 | 1023.7 |
| 20260506220918 | 53 | 53 | 2.0 | 5.0 | 0.00 | 0.02 | 0.02 | 68 | 1023.7 |
| 20260506220413 | 53 | 50 | 2.0 | 3.0 | 0.00 | 0.02 | 0.02 | 67 | 1023.6 |
| 20260506215910 | 53 | 60 | 1.0 | 3.0 | 0.00 | 0.02 | 0.02 | 68 | 1023.7 |
| 20260506215406 | 53 | 50 | 4.0 | 5.0 | 0.00 | 0.02 | 0.02 | 67 | 1023.6 |
| 20260506214902 | 52 | 30 | 3.0 | 4.0 | 0.00 | 0.02 | 0.02 | 70 | 1023.4 |
| 20260506214359 | 52 | 71 | 3.0 | 4.0 | 0.00 | 0.02 | 0.02 | 71 | 1023.5 |
| 20260506213857 | 52 | 16 | 3.0 | 6.0 | 0.00 | 0.02 | 0.02 | 71 | 1023.3 |
| 20260506213354 | 52 | 59 | 3.0 | 5.0 | 0.00 | 0.02 | 0.02 | 72 | 1023.6 |
| 20260506212851 | 52 | 69 | 3.0 | 5.0 | 0.00 | 0.02 | 0.02 | 75 | 1023.4 |
| 20260506212347 | 51 | 68 | 3.0 | 5.0 | 0.00 | 0.02 | 0.02 | 75 | 1023.5 |
| 20260506211842 | 51 | 54 | 4.0 | 5.0 | 0.00 | 0.02 | 0.02 | 76 | 1023.5 |
| 20260506211338 | 51 | 54 | 4.0 | 5.0 | 0.00 | 0.02 | 0.02 | 76 | 1023.5 |
| 20260506210836 | 53 | 44 | 3.0 | 5.0 | 0.00 | 0.02 | 0.02 | 76 | 1023.4 |
| 20260506210332 | 54 | 56 | 3.0 | 6.0 | 0.00 | 0.02 | 0.02 | 73 | 1023.5 |
| 20260506205830 | 53 | 55 | 5.0 | 7.0 | 0.00 | 0.02 | 0.02 | 69 | 1023.5 |
| 20260506205325 | 54 | 24 | 2.0 | 6.0 | 0.00 | 0.02 | 0.02 | 68 | 1023.2 |
| 20260506204822 | 53 | 38 | 5.0 | 7.0 | 0.00 | 0.02 | 0.02 | 69 | 1023.3 |
| 20260506204320 | 54 | 56 | 4.0 | 7.0 | 0.00 | 0.02 | 0.02 | 67 | 1023.3 |
| 20260506203817 | 54 | 61 | 5.0 | 7.0 | 0.00 | 0.02 | 0.02 | 67 | 1023.3 |
| 20260506203314 | 53 | 45 | 4.0 | 6.0 | 0.00 | 0.02 | 0.02 | 70 | 1023.2 |
| 20260506202811 | 52 | 45 | 4.0 | 6.0 | 0.00 | 0.02 | 0.02 | 70 | 1023.2 |
| 20260506202308 | 52 | 57 | 2.0 | 7.0 | 0.00 | 0.02 | 0.02 | 71 | 1023.1 |
| 20260506201804 | 52 | 29 | 2.0 | 7.0 | 0.00 | 0.02 | 0.02 | 70 | 1023.0 |
| 20260506201302 | 52 | 49 | 4.0 | 7.0 | 0.00 | 0.02 | 0.02 | 73 | 1023.3 |
| 20260506200759 | 52 | 23 | 4.0 | 4.0 | 0.00 | 0.02 | 0.02 | 74 | 1023.1 |
| 20260506200255 | 51 | 37 | 3.0 | 4.0 | 0.00 | 0.02 | 0.02 | 72 | 1023.1 |
| 20260506195751 | 52 | 23 | 3.0 | 5.0 | 0.00 | 0.02 | 0.02 | 73 | 1022.9 |
| 20260506195248 | 52 | 19 | 3.0 | 5.0 | 0.00 | 0.02 | 0.02 | 72 | 1022.9 |
| 20260506194745 | 51 | 50 | 4.0 | 5.0 | 0.00 | 0.02 | 0.02 | 76 | 1022.8 |
| 20260506194241 | 51 | 65 | 3.0 | 4.0 | 0.00 | 0.02 | 0.02 | 76 | 1022.8 |
| 20260506193740 | 51 | 45 | 2.0 | 5.0 | 0.00 | 0.02 | 0.02 | 74 | 1022.8 |
| 20260506193236 | 51 | 20 | 3.0 | 6.0 | 0.00 | 0.02 | 0.02 | 76 | 1022.6 |
| 20260506192732 | 51 | 55 | 4.0 | 6.0 | 0.00 | 0.02 | 0.02 | 76 | 1022.7 |
| 20260506192229 | 50 | 34 | 3.0 | 7.0 | 0.00 | 0.02 | 0.02 | 76 | 1022.5 |
| 20260506191726 | 50 | 41 | 6.0 | 7.0 | 0.00 | 0.02 | 0.02 | 75 | 1022.6 |
| 20260506191222 | 50 | 62 | 4.0 | 6.0 | 0.00 | 0.02 | 0.02 | 78 | 1022.8 |
| 20260506190720 | 50 | 79 | 4.0 | 6.0 | 0.00 | 0.02 | 0.02 | 77 | 1022.4 |
| 20260506190216 | 49 | 64 | 5.0 | 5.0 | 0.00 | 0.02 | 0.02 | 77 | 1022.7 |
| 20260506185713 | 49 | 53 | 4.0 | 5.0 | 0.00 | 0.02 | 0.02 | 77 | 1022.7 |
| 20260506185209 | 49 | 75 | 1.0 | 2.0 | 0.00 | 0.02 | 0.02 | 75 | 1022.6 |
| 20260506184702 | 49 | 100 | 2.0 | 2.0 | 0.00 | 0.02 | 0.02 | 76 | 1022.6 |
| 20260506184159 | 49 | 93 | 2.0 | 3.0 | 0.00 | 0.02 | 0.02 | 75 | 1022.5 |
| 20260506183655 | 48 | 79 | 2.0 | 3.0 | 0.00 | 0.02 | 0.02 | 76 | 1022.7 |
| 20260506183151 | 48 | 64 | 2.0 | 4.0 | 0.00 | 0.02 | 0.02 | 76 | 1022.6 |
| 20260506182649 | 49 | 57 | 3.0 | 4.0 | 0.00 | 0.02 | 0.02 | 76 | 1022.5 |
| 20260506182145 | 49 | 75 | 4.0 | 4.0 | 0.00 | 0.02 | 0.02 | 78 | 1022.6 |
| 20260506181643 | 49 | 67 | 3.0 | 4.0 | 0.00 | 0.02 | 0.02 | 79 | 1022.6 |
| 20260506181140 | 49 | 52 | 2.0 | 4.0 | 0.00 | 0.02 | 0.02 | 78 | 1022.6 |
| 20260506180637 | 49 | 62 | 4.0 | 4.0 | 0.00 | 0.02 | 0.02 | 80 | 1022.7 |
| 20260506180133 | 49 | 34 | 4.0 | 4.0 | 0.00 | 0.02 | 0.02 | 78 | 1022.5 |
| 20260506175630 | 48 | 61 | 4.0 | 6.0 | 0.00 | 0.02 | 0.02 | 80 | 1022.7 |
| 20260506175126 | 48 | 86 | 4.0 | 5.0 | 0.00 | 0.02 | 0.02 | 81 | 1022.5 |
| 20260506174625 | 48 | 62 | 3.0 | 4.0 | 0.00 | 0.02 | 0.02 | 80 | 1022.6 |
| 20260506174121 | 49 | 82 | 3.0 | 4.0 | 0.00 | 0.02 | 0.02 | 83 | 1022.5 |
| 20260506173619 | 48 | 38 | 2.0 | 4.0 | 0.00 | 0.02 | 0.02 | 81 | 1022.5 |
| 20260506173115 | 49 | 91 | 2.0 | 4.0 | 0.00 | 0.02 | 0.02 | 80 | 1022.5 |
| 20260506172613 | 49 | 48 | 4.0 | 6.0 | 0.00 | 0.02 | 0.02 | 82 | 1022.6 |
| 20260506172109 | 48 | 70 | 3.0 | 6.0 | 0.00 | 0.02 | 0.02 | 82 | 1022.6 |
| 20260506171607 | 48 | 84 | 3.0 | 5.0 | 0.00 | 0.02 | 0.02 | 82 | 1022.6 |
| 20260506171104 | 48 | 62 | 4.0 | 5.0 | 0.00 | 0.02 | 0.02 | 81 | 1022.5 |
| 20260506170601 | 48 | 64 | 4.0 | 6.0 | 0.00 | 0.02 | 0.02 | 83 | 1022.5 |
| 20260506170059 | 48 | 76 | 2.0 | 5.0 | 0.00 | 0.02 | 0.02 | 83 | 1022.5 |
| 20260506165557 | 48 | 53 | 5.0 | 6.0 | 0.00 | 0.02 | 0.02 | 84 | 1022.6 |
| 20260506165053 | 48 | 66 | 3.0 | 6.0 | 0.00 | 0.02 | 0.02 | 84 | 1022.5 |
| 20260506164550 | 48 | 82 | 3.0 | 6.0 | 0.00 | 0.02 | 0.02 | 82 | 1022.5 |
| 20260506164047 | 48 | 67 | 3.0 | 5.0 | 0.00 | 0.02 | 0.02 | 81 | 1022.6 |
| 20260506163543 | 48 | 41 | 4.0 | 5.0 | 0.00 | 0.02 | 0.02 | 81 | 1022.6 |
| 20260506163039 | 48 | 81 | 2.0 | 3.0 | 0.00 | 0.02 | 0.02 | 79 | 1022.7 |
| 20260506162536 | 48 | 76 | 2.0 | 3.0 | 0.00 | 0.02 | 0.02 | 79 | 1022.3 |
| 20260506162033 | 48 | 94 | 2.0 | 2.0 | 0.00 | 0.02 | 0.02 | 80 | 1022.4 |
| 20260506161530 | 48 | 78 | 2.0 | 3.0 | 0.00 | 0.02 | 0.02 | 80 | 1022.5 |
| 20260506161027 | 48 | 94 | 2.0 | 4.0 | 0.00 | 0.02 | 0.02 | 82 | 1022.5 |
| 20260506160525 | 48 | 98 | 2.0 | 3.0 | 0.00 | 0.02 | 0.02 | 84 | 1022.4 |
| 20260506160022 | 47 | 60 | 3.0 | 4.0 | 0.00 | 0.02 | 0.02 | 83 | 1022.3 |
| 20260506155520 | 47 | 69 | 2.0 | 4.0 | 0.00 | 0.02 | 0.02 | 85 | 1022.2 |
| 20260506153651 | 47 | 127 | 2.0 | 3.0 | 0.00 | 0.02 | 0.02 | 88 | 1022.2 |
| 20260506153149 | 46 | 116 | 3.0 | 3.0 | 0.00 | 0.02 | 0.02 | 89 | 1022.0 |
| 20260506152645 | 47 | 133 | 4.0 | 5.0 | 0.00 | 0.02 | 0.02 | 90 | 1022.0 |
| 20260506152143 | 47 | 110 | 4.0 | 4.0 | 0.00 | 0.02 | 0.02 | 89 | 1022.0 |
| 20260506151641 | 47 | 117 | 3.0 | 4.0 | 0.00 | 0.02 | 0.02 | 92 | 1022.0 |
| 20260506151138 | 47 | 101 | 3.0 | 3.0 | 0.00 | 0.02 | 0.02 | 94 | 1022.0 |
| 20260506150635 | 46 | 106 | 4.0 | 4.0 | 0.00 | 0.02 | 0.02 | 94 | 1021.8 |
| 20260506150132 | 46 | 114 | 4.0 | 4.0 | 0.00 | 0.02 | 0.02 | 95 | 1021.9 |
| 20260506145629 | 46 | 108 | 3.0 | 4.0 | 0.00 | 0.02 | 0.02 | 95 | 1021.8 |
| 20260506145125 | 46 | 112 | 3.0 | 4.0 | 0.00 | 0.02 | 0.02 | 96 | 1022.0 |
| 20260506144623 | 46 | 110 | 3.0 | 4.0 | 0.00 | 0.02 | 0.02 | 96 | 1021.9 |
| 20260506144119 | 46 | 114 | 3.0 | 4.0 | 0.00 | 0.02 | 0.02 | 96 | 1021.7 |
| 20260506143617 | 46 | 119 | 3.0 | 4.0 | 0.00 | 0.02 | 0.02 | 96 | 1021.6 |
| 20260506143115 | 46 | 103 | 3.0 | 4.0 | 0.02 | 0.02 | 0.02 | 97 | 1021.7 |
| 20260506142613 | 45 | 111 | 3.0 | 4.0 | 0.02 | 0.02 | 0.02 | 97 | 1021.7 |
| 20260506142111 | 45 | 114 | 3.0 | 4.0 | 0.00 | 0.02 | 0.02 | 97 | 1021.7 |
| 20260506141608 | 45 | 88 | 3.0 | 4.0 | 0.00 | 0.02 | 0.02 | 97 | 1021.5 |
| 20260506141107 | 45 | 88 | 3.0 | 4.0 | 0.00 | 0.02 | 0.02 | 97 | 1021.5 |
| 20260506140604 | 45 | 122 | 3.0 | 4.0 | 0.00 | 0.02 | 0.02 | 96 | 1021.6 |
| 20260506140101 | 45 | 126 | 5.0 | 5.0 | 0.00 | 0.02 | 0.02 | 96 | 1021.6 |
| 20260506135558 | 45 | 116 | 3.0 | 4.0 | 0.00 | 0.02 | 0.02 | 97 | 1021.4 |
| 20260506135054 | 45 | 77 | 4.0 | 4.0 | 0.00 | 0.02 | 0.02 | 96 | 1021.6 |
| 20260506134551 | 45 | 109 | 3.0 | 4.0 | 0.00 | 0.02 | 0.02 | 96 | 1021.6 |
| 20260506134046 | 45 | 112 | 3.0 | 4.0 | 0.00 | 0.02 | 0.02 | 96 | 1021.7 |
| 20260506133544 | 45 | 104 | 3.0 | 4.0 | 0.00 | 0.02 | 0.02 | 96 | 1021.5 |
| 20260506133041 | 45 | 109 | 3.0 | 4.0 | 0.00 | 0.02 | 0.02 | 96 | 1021.4 |
| 20260506132538 | 45 | 110 | 4.0 | 4.0 | 0.00 | 0.02 | 0.02 | 96 | 1021.2 |
| 20260506132035 | 45 | 121 | 4.0 | 5.0 | 0.05 | 0.02 | 0.02 | 96 | 1021.1 |
| 20260506131532 | 45 | 99 | 3.0 | 4.0 | 0.05 | 0.02 | 0.02 | 96 | 1021.2 |
| 20260506131028 | 45 | 120 | 4.0 | 5.0 | 0.00 | 0.01 | 0.01 | 96 | 1021.2 |
| 20260506130525 | 45 | 122 | 4.0 | 5.0 | 0.00 | 0.01 | 0.01 | 96 | 1021.0 |
| 20260506130023 | 45 | 112 | 3.0 | 4.0 | 0.00 | 0.01 | 0.01 | 96 | 1021.1 |
| 20260506125521 | 45 | 132 | 5.0 | 5.0 | 0.00 | 0.01 | 0.01 | 96 | 1021.1 |
| 20260506125018 | 45 | 120 | 4.0 | 5.0 | 0.00 | 0.01 | 0.01 | 95 | 1021.1 |
| 20260506124516 | 45 | 94 | 3.0 | 4.0 | 0.00 | 0.01 | 0.01 | 96 | 1021.1 |
| 20260506124014 | 45 | 98 | 4.0 | 4.0 | 0.02 | 0.01 | 0.01 | 95 | 1021.1 |
| 20260506123512 | 45 | 118 | 4.0 | 5.0 | 0.02 | 0.01 | 0.01 | 95 | 1021.1 |
| 20260506123009 | 45 | 123 | 3.0 | 4.0 | 0.00 | 0.01 | 0.01 | 94 | 1020.9 |
| 20260506122506 | 45 | 123 | 3.0 | 4.0 | 0.00 | 0.01 | 0.01 | 94 | 1020.9 |
| 20260506122004 | 45 | 111 | 3.0 | 4.0 | 0.00 | 0.01 | 0.01 | 94 | 1020.7 |
| 20260506121501 | 45 | 115 | 4.0 | 4.0 | 0.00 | 0.01 | 0.01 | 94 | 1020.8 |
| 20260506120957 | 45 | 95 | 4.0 | 4.0 | 0.00 | 0.01 | 0.01 | 94 | 1020.8 |
| 20260506120455 | 45 | 91 | 3.0 | 4.0 | 0.02 | 0.01 | 0.01 | 93 | 1020.8 |
| 20260506115952 | 45 | 93 | 3.0 | 4.0 | 0.02 | 0.01 | 0.01 | 93 | 1020.9 |
| 20260506115450 | 46 | 89 | 3.0 | 4.0 | 0.00 | 0.00 | 0.00 | 94 | 1020.6 |
| 20260506114948 | 46 | 93 | 3.0 | 4.0 | 0.02 | 0.00 | 0.00 | 93 | 1020.7 |
| 20260506114445 | 46 | 115 | 4.0 | 4.0 | 0.02 | 0.00 | 0.00 | 93 | 1020.7 |
| 20260506113944 | 46 | 108 | 3.0 | 4.0 | 0.00 | 0.00 | 0.00 | 92 | 1020.6 |
| 20260506113442 | 46 | 111 | 3.0 | 4.0 | 0.00 | 0.00 | 0.00 | 91 | 1020.5 |
| 20260506112938 | 46 | 115 | 3.0 | 4.0 | 0.00 | 0.00 | 0.00 | 91 | 1020.5 |
| 20260506112436 | 46 | 93 | 2.0 | 3.0 | 0.00 | 0.00 | 0.00 | 90 | 1020.5 |
| 20260506111932 | 46 | 111 | 3.0 | 3.0 | 0.00 | 0.00 | 0.00 | 90 | 1020.4 |
| 20260506111431 | 46 | 101 | 2.0 | 3.0 | 0.00 | 0.00 | 0.00 | 89 | 1020.4 |
| 20260506110927 | 46 | 105 | 3.0 | 4.0 | 0.00 | 0.00 | 0.00 | 88 | 1020.5 |
| 20260506110425 | 46 | 102 | 2.0 | 4.0 | 0.00 | 0.00 | 0.00 | 88 | 1020.5 |
| 20260506105921 | 46 | 85 | 3.0 | 4.0 | 0.00 | 0.00 | 0.00 | 87 | 1020.3 |
| 20260506105418 | 47 | 92 | 4.0 | 4.0 | 0.00 | 0.00 | 0.00 | 87 | 1020.3 |
| 20260506104915 | 47 | 113 | 3.0 | 4.0 | 0.00 | 0.00 | 0.00 | 87 | 1020.4 |
| 20260506104413 | 47 | 114 | 4.0 | 4.0 | 0.00 | 0.00 | 0.00 | 87 | 1020.4 |
| 20260506103911 | 47 | 117 | 4.0 | 6.0 | 0.00 | 0.00 | 0.00 | 85 | 1020.5 |
| 20260506103408 | 47 | 121 | 4.0 | 5.0 | 0.00 | 0.00 | 0.00 | 85 | 1020.2 |
| 20260506102905 | 47 | 89 | 3.0 | 5.0 | 0.00 | 0.00 | 0.00 | 84 | 1020.3 |
| 20260506102403 | 47 | 97 | 4.0 | 5.0 | 0.00 | 0.00 | 0.00 | 85 | 1020.3 |
| 20260506101900 | 47 | 110 | 4.0 | 4.0 | 0.00 | 0.00 | 0.00 | 84 | 1020.2 |
| 20260506101356 | 47 | 115 | 3.0 | 4.0 | 0.00 | 0.00 | 0.00 | 85 | 1020.3 |
| 20260506100854 | 47 | 109 | 4.0 | 4.0 | 0.00 | 0.00 | 0.00 | 85 | 1020.1 |
| 20260506100352 | 47 | 111 | 4.0 | 5.0 | 0.00 | 0.00 | 0.00 | 84 | 1020.1 |
| 20260506095850 | 47 | 97 | 4.0 | 5.0 | 0.00 | 0.00 | 0.00 | 85 | 1020.1 |
| 20260506095348 | 47 | 95 | 4.0 | 5.0 | 0.00 | 0.00 | 0.00 | 84 | 1020.0 |
| 20260506094844 | 47 | 73 | 4.0 | 5.0 | 0.00 | 0.00 | 0.00 | 84 | 1019.9 |
| 20260506094343 | 47 | 91 | 3.0 | 4.0 | 0.00 | 0.00 | 0.00 | 85 | 1020.0 |
| 20260506093840 | 47 | 118 | 3.0 | 4.0 | 0.00 | 0.00 | 0.00 | 84 | 1020.1 |
| 20260506093337 | 47 | 115 | 4.0 | 4.0 | 0.00 | 0.00 | 0.00 | 84 | 1019.8 |
| 20260506092835 | 47 | 123 | 4.0 | 4.0 | 0.00 | 0.00 | 0.00 | 83 | 1020.1 |
| 20260506092333 | 47 | 115 | 4.0 | 4.0 | 0.00 | 0.00 | 0.00 | 83 | 1019.8 |
| 20260506091829 | 47 | 99 | 3.0 | 4.0 | 0.00 | 0.00 | 0.00 | 83 | 1019.9 |
| 20260506091327 | 47 | 96 | 3.0 | 4.0 | 0.00 | 0.00 | 0.00 | 82 | 1019.9 |
| 20260506090825 | 47 | 114 | 4.0 | 4.0 | 0.00 | 0.00 | 0.00 | 83 | 1019.9 |
| 20260506090322 | 47 | 101 | 4.0 | 4.0 | 0.00 | 0.00 | 0.00 | 82 | 1019.8 |
| 20260506085818 | 47 | 99 | 3.0 | 4.0 | 0.00 | 0.00 | 0.00 | 82 | 1019.8 |
| 20260506085315 | 47 | 96 | 4.0 | 4.0 | 0.00 | 0.00 | 0.00 | 82 | 1019.7 |
| 20260506084811 | 47 | 109 | 3.0 | 4.0 | 0.00 | 0.00 | 0.00 | 80 | 1019.8 |
| 20260506084308 | 47 | 93 | 4.0 | 4.0 | 0.00 | 0.00 | 0.00 | 80 | 1019.8 |
| 20260506083805 | 47 | 87 | 4.0 | 4.0 | 0.00 | 0.00 | 0.00 | 80 | 1019.6 |
| 20260506083302 | 47 | 84 | 3.0 | 4.0 | 0.00 | 0.00 | 0.00 | 80 | 1019.6 |
| 20260506082759 | 48 | 116 | 3.0 | 4.0 | 0.00 | 0.00 | 0.00 | 78 | 1019.6 |
| 20260506082255 | 48 | 112 | 4.0 | 4.0 | 0.00 | 0.00 | 0.00 | 78 | 1019.5 |
| 20260506081753 | 48 | 94 | 3.0 | 4.0 | 0.00 | 0.00 | 0.00 | 79 | 1019.5 |
| 20260506081250 | 48 | 123 | 3.0 | 4.0 | 0.00 | 0.00 | 0.00 | 78 | 1019.5 |
| 20260506080748 | 48 | 121 | 4.0 | 4.0 | 0.00 | 0.00 | 0.00 | 76 | 1019.5 |
| 20260506080244 | 48 | 99 | 4.0 | 4.0 | 0.00 | 0.00 | 0.00 | 75 | 1019.5 |
| 20260506073228 | 48 | 95 | 4.0 | 7.0 | 0.00 | 0.00 | 0.00 | 75 | 1019.4 |
| 20260506072725 | 49 | 101 | 3.0 | 3.0 | 0.00 | 0.00 | 0.00 | 76 | 1019.5 |
| 20260506072223 | 48 | 104 | 4.0 | 5.0 | 0.00 | 0.00 | 0.00 | 74 | 1019.5 |
| 20260506071720 | 48 | 83 | 3.0 | 3.0 | 0.00 | 0.00 | 0.00 | 75 | 1019.5 |
| 20260506071218 | 48 | 96 | 3.0 | 5.0 | 0.00 | 0.00 | 0.00 | 74 | 1019.2 |
| 20260506070714 | 48 | 106 | 3.0 | 6.0 | 0.00 | 0.00 | 0.00 | 75 | 1019.2 |
| 20260506070212 | 49 | 85 | 4.0 | 5.0 | 0.00 | 0.00 | 0.00 | 77 | 1019.3 |
| 20260506062148 | 48 | 97 | 3.0 | 4.0 | 0.00 | 0.00 | 0.00 | 77 | 1019.5 |
| 20260506061644 | 48 | 116 | 4.0 | 4.0 | 0.00 | 0.00 | 0.00 | 78 | 1019.3 |
| 20260506061142 | 48 | 122 | 3.0 | 4.0 | 0.00 | 0.00 | 0.00 | 78 | 1019.4 |
| 20260506060640 | 48 | 117 | 3.0 | 4.0 | 0.00 | 0.00 | 0.00 | 77 | 1019.4 |
| 20260506060137 | 48 | 100 | 3.0 | 4.0 | 0.00 | 0.00 | 0.00 | 77 | 1019.3 |
| 20260506051109 | 49 | 79 | 3.0 | 4.0 | 0.00 | 0.00 | 0.00 | 74 | 1019.1 |
| 20260506050607 | 49 | 83 | 4.0 | 6.0 | 0.00 | 0.00 | 0.00 | 72 | 1019.0 |
| 20260506050104 | 49 | 24 | 3.0 | 4.0 | 0.00 | 0.00 | 0.00 | 73 | 1018.9 |
| 20260506045057 | 48 | 80 | 4.0 | 5.0 | 0.00 | 0.00 | 0.00 | 72 | 1018.8 |
| 20260506044556 | 49 | 95 | 2.0 | 4.0 | 0.00 | 0.00 | 0.00 | 74 | 1018.7 |
| 20260506044052 | 49 | 98 | 3.0 | 4.0 | 0.00 | 0.00 | 0.00 | 74 | 1018.7 |
| 20260506043549 | 49 | 123 | 4.0 | 4.0 | 0.00 | 0.00 | 0.00 | 74 | 1018.6 |
| 20260506043047 | 50 | 116 | 4.0 | 5.0 | 0.00 | 0.00 | 0.00 | 72 | 1018.4 |
| 20260506042546 | 50 | 35 | 1.0 | 6.0 | 0.00 | 0.00 | 0.00 | 71 | 1018.4 |
| 20260506042044 | 50 | 35 | 4.0 | 6.0 | 0.00 | 0.00 | 0.00 | 69 | 1018.3 |
| 20260506041542 | 50 | 356 | 6.0 | 10.0 | 0.00 | 0.00 | 0.00 | 73 | 1018.3 |
| 20260506041038 | 51 | 35 | 3.0 | 6.0 | 0.00 | 0.00 | 0.00 | 70 | 1018.1 |
| 20260506040536 | 51 | 358 | 4.0 | 5.0 | 0.00 | 0.00 | 0.00 | 72 | 1018.2 |
| 20260506040032 | 51 | 37 | 8.0 | 11.0 | 0.00 | 0.00 | 0.00 | 70 | 1018.1 |
| 20260506035529 | 51 | 329 | 8.0 | 10.0 | 0.00 | 0.00 | 0.00 | 70 | 1018.1 |
| 20260506035026 | 52 | 16 | 4.0 | 6.0 | 0.00 | 0.00 | 0.00 | 69 | 1018.0 |
| 20260506034524 | 52 | 27 | 3.0 | 5.0 | 0.00 | 0.00 | 0.00 | 70 | 1017.8 |
| 20260506034020 | 52 | 20 | 3.0 | 7.0 | 0.00 | 0.00 | 0.00 | 69 | 1018.1 |
| 20260506033518 | 53 | 352 | 6.0 | 9.0 | 0.00 | 0.00 | 0.00 | 68 | 1017.8 |
| 20260506033015 | 53 | 299 | 7.0 | 8.0 | 0.00 | 0.00 | 0.00 | 66 | 1017.7 |
| 20260506032512 | 53 | 321 | 9.0 | 12.0 | 0.00 | 0.00 | 0.00 | 67 | 1017.7 |
| 20260506032008 | 54 | 221 | 2.0 | 9.0 | 0.00 | 0.00 | 0.00 | 68 | 1017.6 |
| 20260506031506 | 54 | 0 | 3.0 | 6.0 | 0.00 | 0.00 | 0.00 | 67 | 1017.4 |
| 20260506031003 | 55 | 29 | 6.0 | 10.0 | 0.00 | 0.00 | 0.00 | 67 | 1017.4 |
| 20260506030501 | 55 | 6 | 6.0 | 8.0 | 0.00 | 0.00 | 0.00 | 67 | 1017.5 |
| 20260506025958 | 55 | 246 | 3.0 | 7.0 | 0.00 | 0.00 | 0.00 | 65 | 1017.5 |
| 20260506025454 | 55 | 50 | 4.0 | 9.0 | 0.00 | 0.00 | 0.00 | 68 | 1017.3 |
| 20260506024951 | 55 | 359 | 5.0 | 10.0 | 0.00 | 0.00 | 0.00 | 65 | 1017.3 |
| 20260506024448 | 55 | 343 | 4.0 | 9.0 | 0.00 | 0.00 | 0.00 | 66 | 1017.2 |
| 20260506023944 | 55 | 331 | 2.0 | 10.0 | 0.00 | 0.00 | 0.00 | 65 | 1017.2 |
| 20260506023441 | 55 | 359 | 5.0 | 9.0 | 0.00 | 0.00 | 0.00 | 67 | 1017.2 |
| 20260506022937 | 55 | 21 | 5.0 | 12.0 | 0.00 | 0.00 | 0.00 | 66 | 1017.1 |
| 20260506022435 | 55 | 312 | 10.0 | 12.0 | 0.00 | 0.00 | 0.00 | 65 | 1017.0 |
| 20260506021933 | 56 | 4 | 9.0 | 13.0 | 0.00 | 0.00 | 0.00 | 62 | 1016.9 |
| 20260506021430 | 57 | 347 | 4.0 | 10.0 | 0.00 | 0.00 | 0.00 | 62 | 1016.9 |
| 20260506020927 | 58 | 24 | 6.0 | 8.0 | 0.00 | 0.00 | 0.00 | 60 | 1016.8 |
| 20260506020425 | 58 | 18 | 3.0 | 6.0 | 0.00 | 0.00 | 0.00 | 60 | 1016.8 |
| 20260506015922 | 58 | 327 | 4.0 | 9.0 | 0.00 | 0.00 | 0.00 | 59 | 1016.6 |
| 20260506015419 | 59 | 337 | 2.0 | 6.0 | 0.00 | 0.00 | 0.00 | 57 | 1016.4 |
| 20260506014916 | 59 | 20 | 3.0 | 5.0 | 0.00 | 0.00 | 0.00 | 58 | 1016.5 |
| 20260506014413 | 59 | 15 | 6.0 | 10.0 | 0.00 | 0.00 | 0.00 | 56 | 1016.5 |
| 20260506013909 | 59 | 34 | 4.0 | 9.0 | 0.00 | 0.00 | 0.00 | 58 | 1016.5 |
| 20260506013408 | 59 | 56 | 8.0 | 10.0 | 0.00 | 0.00 | 0.00 | 55 | 1016.2 |
| 20260506012903 | 59 | 348 | 4.0 | 6.0 | 0.00 | 0.00 | 0.00 | 55 | 1016.6 |
| 20260506012400 | 58 | 332 | 2.0 | 6.0 | 0.00 | 0.00 | 0.00 | 60 | 1016.4 |
| 20260506011857 | 58 | 289 | 4.0 | 6.0 | 0.00 | 0.00 | 0.00 | 53 | 1016.5 |
| 20260506011354 | 58 | 319 | 6.0 | 8.0 | 0.00 | 0.00 | 0.00 | 60 | 1016.5 |
| 20260506010851 | 58 | 354 | 7.0 | 10.0 | 0.00 | 0.00 | 0.00 | 61 | 1016.5 |
| 20260506010350 | 58 | 281 | 3.0 | 9.0 | 0.00 | 0.00 | 0.00 | 58 | 1016.4 |
| 20260506005846 | 58 | 316 | 5.0 | 8.0 | 0.00 | 0.00 | 0.00 | 61 | 1016.4 |
| 20260506005343 | 59 | 333 | 7.0 | 11.0 | 0.00 | 0.00 | 0.00 | 58 | 1016.3 |
| 20260506004838 | 61 | 7 | 4.0 | 6.0 | 0.00 | 0.00 | 0.00 | 54 | 1016.3 |
| 20260506004337 | 62 | 36 | 4.0 | 4.0 | 0.00 | 0.00 | 0.00 | 54 | 1016.2 |
| 20260506003833 | 63 | 32 | 6.0 | 6.0 | 0.00 | 0.00 | 0.00 | 55 | 1016.1 |
| 20260506003329 | 63 | 107 | 3.0 | 5.0 | 0.00 | 0.00 | 0.00 | 49 | 1016.1 |
| 20260506002825 | 62 | 104 | 4.0 | 7.0 | 0.00 | 0.00 | 0.00 | 51 | 1015.9 |
| 20260506002322 | 63 | 103 | 6.0 | 11.0 | 0.00 | 0.00 | 0.00 | 50 | 1016.0 |
| 20260506001818 | 64 | 95 | 3.0 | 10.0 | 0.00 | 0.00 | 0.00 | 50 | 1016.0 |
| 20260506001315 | 64 | 140 | 4.0 | 9.0 | 0.00 | 0.00 | 0.00 | 51 | 1015.9 |
| 20260506000812 | 64 | 53 | 2.0 | 6.0 | 0.00 | 0.00 | 0.00 | 51 | 1015.8 |
| 20260506000310 | 63 | 57 | 2.0 | 4.0 | 0.00 | 0.00 | 0.00 | 51 | 1015.8 |
| 20260505235806 | 62 | 58 | 3.0 | 6.0 | 0.00 | 0.00 | 0.00 | 53 | 1015.8 |
| 20260505235305 | 62 | 38 | 3.0 | 6.0 | 0.00 | 0.00 | 0.00 | 56 | 1015.9 |
| 20260505234800 | 60 | 316 | 0.0 | 4.0 | 0.00 | 0.00 | 0.00 | 63 | 1015.9 |
| 20260505234258 | 60 | 7 | 3.0 | 5.0 | 0.00 | 0.00 | 0.00 | 63 | 1016.0 |
| 20260505233755 | 62 | 266 | 1.0 | 5.0 | 0.00 | 0.00 | 0.00 | 54 | 1015.8 |
| 20260505233253 | 63 | 4 | 3.0 | 12.0 | 0.00 | 0.00 | 0.00 | 59 | 1015.6 |
| 20260505232750 | 64 | 22 | 2.0 | 7.0 | 0.00 | 0.00 | 0.00 | 57 | 1015.6 |
| 20260505232247 | 64 | 52 | 3.0 | 9.0 | 0.00 | 0.00 | 0.00 | 55 | 1015.4 |
| 20260505231743 | 65 | 32 | 5.0 | 8.0 | 0.00 | 0.00 | 0.00 | 54 | 1015.4 |
| 20260505231242 | 65 | 96 | 4.0 | 6.0 | 0.00 | 0.00 | 0.00 | 50 | 1015.5 |
| 20260505230740 | 65 | 83 | 2.0 | 6.0 | 0.00 | 0.00 | 0.00 | 51 | 1015.7 |